Time,TemperatureF,DewpointF,PressureIn,WindDirection,WindDirectionDegrees,WindSpeedMPH,WindSpeedGustMPH,Humidity,HourlyPrecipIn,Conditions,Clouds,dailyrainin,SoftwareType,DateUTC
2013-05-16 00:24:00,40.0,-99.9,-100.00,NNW,328,0.0,6.0,-999,-99.99,,,-99.99,,2013-05-16 08:24:00,
2013-05-16 00:35:00,40.0,-99.9,-100.00,NNW,328,0.0,6.0,-999,-99.99,,,-99.99,,2013-05-16 08:35:00,
2013-05-16 00:45:00,40.0,-99.9,-100.00,NNW,328,0.0,6.0,-999,-99.99,,,-99.99,,2013-05-16 08:45:00,
2013-05-16 00:55:00,40.0,-99.9,-100.00,West,275,3.0,5.0,-999,-99.99,,,-99.99,,2013-05-16 08:55:00,
2013-05-16 01:14:00,40.0,-99.9,-100.00,West,275,3.0,5.0,-999,-99.99,,,-99.99,,2013-05-16 09:14:00,
2013-05-16 01:24:00,40.0,-99.9,-100.00,West,275,3.0,5.0,-999,-99.99,,,-99.99,,2013-05-16 09:24:00,
2013-05-16 01:35:00,40.0,-99.9,-100.00,West,275,3.0,5.0,-999,-99.99,,,-99.99,,2013-05-16 09:35:00,
2013-05-16 01:45:00,40.0,-99.9,-100.00,West,275,3.0,5.0,-999,-99.99,,,-99.99,,2013-05-16 09:45:00,
2013-05-16 01:54:00,40.0,-99.9,-100.00,WSW,249,4.0,4.0,-999,-99.99,,,-99.99,,2013-05-16 09:54:00,
2013-05-16 02:15:00,40.0,-99.9,-100.00,WSW,249,4.0,4.0,-999,-99.99,,,-99.99,,2013-05-16 10:15:00,
2013-05-16 02:24:00,40.0,-99.9,-100.00,WSW,249,4.0,4.0,-999,-99.99,,,-99.99,,2013-05-16 10:24:00,
2013-05-16 02:36:00,40.0,-99.9,-100.00,WSW,249,4.0,4.0,-999,-99.99,,,-99.99,,2013-05-16 10:36:00,
2013-05-16 02:45:00,40.0,-99.9,-100.00,WSW,249,4.0,4.0,-999,-99.99,,,-99.99,,2013-05-16 10:45:00,
2013-05-16 04:23:00,37.0,-99.9,-100.00,SW,216,0.0,0.0,-999,-99.99,,,-99.99,,2013-05-16 12:23:00,
2013-05-16 04:35:00,37.0,-99.9,-100.00,SW,216,0.0,0.0,-999,-99.99,,,-99.99,,2013-05-16 12:35:00,
2013-05-16 04:45:00,37.0,-99.9,-100.00,SW,216,0.0,0.0,-999,-99.99,,,-99.99,,2013-05-16 12:45:00,
2013-05-16 04:53:00,37.0,-99.9,-100.00,SW,216,0.0,0.0,-999,-99.99,,,-99.99,,2013-05-16 12:53:00,
2013-05-16 06:55:00,38.0,-99.9,-100.00,NW,309,1.0,5.0,-999,-99.99,,,-99.99,,2013-05-16 14:55:00,
2013-05-16 07:28:00,38.0,-99.9,-100.00,NW,309,1.0,5.0,-999,-99.99,,,-99.99,,2013-05-16 15:28:00,
2013-05-16 07:41:00,38.0,-99.9,-100.00,NW,309,1.0,5.0,-999,-99.99,,,-99.99,,2013-05-16 15:41:00,
2013-05-16 07:50:00,38.0,-99.9,-100.00,NW,309,1.0,5.0,-999,-99.99,,,-99.99,,2013-05-16 15:50:00,
2013-05-16 08:55:00,37.0,-99.9,-100.00,NNW,331,0.0,5.0,-999,-99.99,,,-99.99,,2013-05-16 16:55:00,
2013-05-16 09:31:00,37.0,-99.9,-100.00,NNW,331,0.0,5.0,-999,-99.99,,,-99.99,,2013-05-16 17:31:00,
2013-05-16 09:41:00,37.0,-99.9,-100.00,NNW,331,0.0,5.0,-999,-99.99,,,-99.99,,2013-05-16 17:41:00,
2013-05-16 09:51:00,37.0,-99.9,-100.00,NNW,331,0.0,5.0,-999,-99.99,,,-99.99,,2013-05-16 17:51:00,
2013-05-16 09:55:00,-999.0,-99.9,-100.00,North,1,5.0,6.0,-999,-99.99,,,-99.99,,2013-05-16 17:55:00,
2013-05-16 10:31:00,-999.0,-99.9,-100.00,North,1,5.0,6.0,-999,-99.99,,,-99.99,,2013-05-16 18:31:00,
2013-05-16 10:41:00,-999.0,-99.9,-100.00,North,1,5.0,6.0,-999,-99.99,,,-99.99,,2013-05-16 18:41:00,
2013-05-16 10:51:00,-999.0,-99.9,-100.00,North,1,5.0,6.0,-999,-99.99,,,-99.99,,2013-05-16 18:51:00,
2013-05-16 10:54:00,38.0,-99.9,-100.00,NNW,341,0.0,5.0,-999,-99.99,,,-99.99,,2013-05-16 18:54:00,
2013-05-16 11:30:00,38.0,-99.9,-100.00,NNW,341,0.0,5.0,-999,-99.99,,,-99.99,,2013-05-16 19:30:00,
2013-05-16 11:41:00,38.0,-99.9,-100.00,NNW,341,0.0,5.0,-999,-99.99,,,-99.99,,2013-05-16 19:41:00,
2013-05-16 11:51:00,-999.0,-99.9,-100.00,NNW,341,0.0,5.0,-999,-99.99,,,-99.99,,2013-05-16 19:51:00,
2013-05-16 11:55:00,38.0,-99.9,-100.00,NW,317,0.0,5.0,-999,-99.99,,,-99.99,,2013-05-16 19:55:00,
2013-05-16 12:20:00,38.0,-99.9,-100.00,NW,317,0.0,5.0,-999,-99.99,,,-99.99,,2013-05-16 20:20:00,
2013-05-16 12:30:00,38.0,-99.9,-100.00,NW,317,0.0,5.0,-999,-99.99,,,-99.99,,2013-05-16 20:30:00,
2013-05-16 12:41:00,-999.0,-99.9,-100.00,NW,317,0.0,5.0,-999,-99.99,,,-99.99,,2013-05-16 20:41:00,
2013-05-16 12:51:00,38.0,-99.9,-100.00,NW,317,0.0,5.0,-999,-99.99,,,-99.99,,2013-05-16 20:51:00,
2013-05-16 16:22:00,41.0,-99.9,-100.00,WNW,295,0.0,6.0,-999,-99.99,,,-99.99,,2013-05-17 00:22:00,
2013-05-16 16:33:00,41.0,-99.9,-100.00,WNW,295,0.0,6.0,-999,-99.99,,,-99.99,,2013-05-17 00:33:00,
2013-05-16 16:44:00,41.0,-99.9,-100.00,WNW,295,0.0,6.0,-999,-99.99,,,-99.99,,2013-05-17 00:44:00,
2013-05-16 16:53:00,41.0,-99.9,-100.00,WNW,295,0.0,6.0,-999,-99.99,,,-99.99,,2013-05-17 00:53:00,
2013-05-16 19:23:00,40.0,-99.9,-100.00,WNW,282,2.0,8.0,-999,-99.99,,,-99.99,,2013-05-17 03:23:00,
2013-05-16 19:34:00,40.0,-99.9,-100.00,WNW,282,2.0,8.0,-999,-99.99,,,-99.99,,2013-05-17 03:34:00,
2013-05-16 19:43:00,40.0,-99.9,-100.00,WNW,282,2.0,8.0,-999,-99.99,,,-99.99,,2013-05-17 03:43:00,
2013-05-16 19:53:00,40.0,-99.9,-100.00,WNW,282,2.0,8.0,-999,-99.99,,,-99.99,,2013-05-17 03:53:00,
2013-05-16 21:22:00,40.0,-99.9,-100.00,West,272,0.0,6.0,-999,-99.99,,,-99.99,,2013-05-17 05:22:00,
2013-05-16 21:32:00,40.0,-99.9,-100.00,West,272,0.0,6.0,-999,-99.99,,,-99.99,,2013-05-17 05:32:00,
2013-05-16 21:43:00,40.0,-99.9,-100.00,West,272,0.0,6.0,-999,-99.99,,,-99.99,,2013-05-17 05:43:00,
2013-05-16 21:52:00,40.0,-99.9,-100.00,West,272,0.0,6.0,-999,-99.99,,,-99.99,,2013-05-17 05:52:00,
2013-05-16 22:22:00,39.0,-99.9,-100.00,NW,326,0.0,6.0,-999,-99.99,,,-99.99,,2013-05-17 06:22:00,
2013-05-16 22:32:00,39.0,-99.9,-100.00,NW,326,0.0,6.0,-999,-99.99,,,-99.99,,2013-05-17 06:32:00,
2013-05-16 22:42:00,39.0,-99.9,-100.00,NW,326,0.0,6.0,-999,-99.99,,,-99.99,,2013-05-17 06:42:00,
2013-05-16 22:52:00,39.0,-99.9,-100.00,NW,326,0.0,6.0,-999,-99.99,,,-99.99,,2013-05-17 06:52:00,
2013-05-16 23:21:00,39.0,-99.9,-100.00,NNW,338,0.0,0.0,-999,-99.99,,,-99.99,,2013-05-17 07:21:00,
2013-05-16 23:32:00,39.0,-99.9,-100.00,NNW,338,0.0,0.0,-999,-99.99,,,-99.99,,2013-05-17 07:32:00,
2013-05-16 23:43:00,39.0,-99.9,-100.00,NNW,338,0.0,0.0,-999,-99.99,,,-99.99,,2013-05-17 07:43:00,
2013-05-16 23:53:00,39.0,-99.9,-100.00,NNW,338,0.0,0.0,-999,-99.99,,,-99.99,,2013-05-17 07:53:00,